THOR ABLESTAR DEB, 649

Orbit data source: Space-Track

THOR ABLESTAR DEB, 649 is space debris in LEO originally from a launch on Thu, 29 Jun 1961 UTC launched from the Air Force Eastern Test Range (AFETR). Debris objects in space refer to the collection of defunct objects orbiting the Earth. Examples of debris include non-operational satellites, rocket bodies, and fragments generated from explosions, collisions, or faulty payload assembly.

Loading next visibility...
THOR ABLESTAR DEB details
Identifier
649, 1961-015HA
Orbit
LEO
Last TLE update1 day ago
Origin
Flag of USUSAF SSD (US)
ManufacturerUnknown
MissionSpacecraft
Bus & MotorUnknown
MassUnknown
Launch date (UTC)
1961-06-29 (64 years ago)
Launch vehicleUnknown
Launch site
Air Force Eastern Test Range (AFETR)
Object type
Payload
Rocket body
Debris
Shape & HBRUnknown
Radar Cross SectionSmall (<0.1 m²)

Expand to show TLE details & history

TLE from 1 day ago
0 THOR ABLESTAR DEB
1   649U 61015HA  25035.26504480  .00000441  00000-0  14298-2 0  9991
2   649  66.2671  92.9491 0567605 281.2946 139.8679 12.65118555930143
Epoch: 2025-02-04T06:21Z
Definitive object data (Epoch: 2025-02-04T06:21:39.87Z)
Latitude56.26329°
Longitude-96.20329°
Altitude1,757.808 km
Speed6.848 km/s
True Right ascension08h 55m 32s
True Declination56° 07' 26"
Sunlit
Object was in full shadow at TLE epoch
Visualization TLE readout
Latitude51.63777°
Longitude6.56461°
Altitude1,819.544 km
Speed6.793 km/s
Apparent Right ascension10h 51m 11s
Apparent Declination55° 25' 04"
Sunlit
Object is in daylight
Visualization observer readout
Local Sidereal Time17:00:10
Azimuth318.707° NNW
Elevation30.746°
Doppler factor1
Orbital elements
Apogee altitude1,841.947 km
Perigee altitude958.916 km
Semi-major axis7,778.569 km
Eccentricity0.0567605
Inclination66.2671°
RAAN92.9491°
Arg. of periapsis281.2946°
True anomaly143.84095°
Mean anomaly139.8679°
Eccentric anomaly141.87567°
Mean motion3.16369 °/min
BSTAR0.0014298
Orbital period113.79 mins
Loading maneuver chart data...

THOR ABLESTAR DEB Visibility forecast

Observer location: undefined°, undefined

Span
Click to sort rows by Start time (UTC) header in descending order
Start Az.
Max El. time (UTC)
Max El. Az.
Max El.
End time (UTC)
End Az.
15 mins2025-02-05 14:56:36.093Z318.543° NNW2025-02-05 15:02:36.093Z243.522° WSW42.497°2025-02-05 15:11:36.093Z168.468° S
7 mins2025-02-05 16:54:36.093Z286.535° WNW2025-02-05 16:57:36.093Z268.696° W13.087°2025-02-05 17:01:36.093Z243.994° WSW
14 mins2025-02-06 03:38:36.093Z152.589° SSE2025-02-06 03:44:36.093Z103.527° ESE26.52°2025-02-06 03:52:36.093Z48.099° ENE
18 mins2025-02-06 05:33:36.093Z221.116° SW2025-02-06 05:41:36.093Z312.411° NW43.329°2025-02-06 05:51:36.093Z27.234° NE
14 mins2025-02-06 07:34:36.093Z282.57° WNW2025-02-06 07:41:36.093Z332.526° NNW22.739°2025-02-06 07:48:36.093Z16.706° NNE
9 mins2025-02-06 09:39:36.093Z335.056° NNW2025-02-06 09:43:36.093Z358.749° N14.534°2025-02-06 09:48:36.093Z27.644° NE
14 mins2025-02-06 11:39:36.093Z346.13° N2025-02-06 11:46:36.093Z31.563° NE22.427°2025-02-06 11:53:36.093Z77.108° E
18 mins2025-02-06 13:37:36.093Z335.88° NNW2025-02-06 13:46:36.093Z59.761° ENE42.54°2025-02-06 13:55:36.093Z136.579° SSE
|